FW2477 Weather Reports


time (UTC)temp
F
wind
direction
speed
knots
gust
knots
rain 1hr
in
rain 24hr
in
rain mn
in
humidity
%
barometer
mb
20260507142506 58 322 7.0 13.9 0.00 0.00 0.00 51 1016.1
20260507142006 58 320 6.1 12.2 0.00 0.00 0.00 52 1016.2
20260507141506 58 324 5.2 13.9 0.00 0.00 0.00 52 1016.1
20260507141007 57 323 5.2 13.9 0.00 0.00 0.00 53 1016.1
20260507140506 57 324 5.2 11.3 0.00 0.00 0.00 53 1016.0
20260507140007 57 324 5.2 11.3 0.00 0.00 0.00 53 1016.0
20260507135506 57 320 5.2 12.2 0.00 0.00 0.00 54 1016.1
20260507135007 56 320 5.2 12.2 0.00 0.00 0.00 55 1016.0
20260507134507 56 323 6.1 13.0 0.00 0.00 0.00 55 1016.1
20260507134006 56 324 6.1 13.0 0.00 0.00 0.00 55 1016.0
20260507133006 56 327 4.3 10.4 0.00 0.00 0.00 56 1016.0
20260507132006 55 328 5.2 11.3 0.00 0.00 0.00 57 1015.9
20260507131506 55 326 5.2 11.3 0.00 0.00 0.00 57 1015.9
20260507131006 55 323 4.3 13.9 0.00 0.00 0.00 57 1016.0
20260507130506 54 322 2.6 13.9 0.00 0.00 0.00 58 1015.9
20260507130006 54 311 0.9 8.7 0.00 0.00 0.00 59 1015.9
20260507125007 54 265 0.0 2.6 0.00 0.00 0.00 60 1016.0
20260507124507 55 257 0.9 5.2 0.00 0.00 0.00 58 1015.9
20260507124006 55 255 1.7 7.0 0.00 0.00 0.00 57 1015.8
20260507123506 55 278 2.6 10.4 0.00 0.00 0.00 57 1015.9
20260507123007 54 294 1.7 10.4 0.00 0.00 0.00 58 1015.8
20260507122506 53 287 0.0 4.3 0.00 0.00 0.00 61 1015.8
20260507122006 53 255 0.0 0.9 0.00 0.00 0.00 62 1015.9
20260507121506 54 308 0.0 0.9 0.00 0.00 0.00 62 1015.7
20260507121006 54 295 0.0 0.9 0.00 0.00 0.00 61 1015.9
20260507120506 55 254 0.0 2.6 0.00 0.00 0.00 60 1015.9
20260507115007 56 266 0.9 6.1 0.00 0.00 0.00 57 1015.7
20260507114506 56 306 0.9 5.2 0.00 0.00 0.00 57 1015.6
20260507114006 56 325 1.7 7.8 0.00 0.00 0.00 57 1015.7
20260507113505 56 323 2.6 7.8 0.00 0.00 0.00 57 1015.7
20260507112506 56 321 1.7 5.2 0.00 0.00 0.00 58 1015.8
20260507112006 56 321 1.7 5.2 0.00 0.00 0.00 59 1015.8
20260507111006 57 323 2.6 7.0 0.00 0.00 0.00 58 1015.8
20260507110506 57 324 2.6 7.8 0.00 0.00 0.00 58 1015.8
20260507110006 57 322 3.5 7.8 0.00 0.00 0.00 58 1015.8
20260507105506 57 328 3.5 7.8 0.00 0.00 0.00 57 1015.8
20260507105006 58 330 2.6 7.0 0.00 0.00 0.00 56 1015.6
20260507104506 58 326 2.6 8.7 0.00 0.00 0.00 56 1015.6
20260507104006 58 324 3.5 8.7 0.00 0.00 0.00 56 1015.7
20260507103505 58 325 4.3 9.6 0.00 0.00 0.00 56 1015.6
20260507103006 58 327 5.2 9.6 0.00 0.00 0.00 56 1015.6
20260507102505 58 325 5.2 10.4 0.00 0.00 0.00 56 1015.4
20260507102007 58 325 4.3 10.4 0.00 0.00 0.00 57 1015.5
20260507101507 58 325 3.5 8.7 0.00 0.00 0.00 57 1015.5
20260507101005 58 326 3.5 8.7 0.00 0.00 0.00 56 1015.6
20260507100006 58 333 1.7 7.0 0.00 0.00 0.00 56 1015.7
20260507095505 58 317 1.7 7.0 0.00 0.00 0.00 56 1015.6
20260507095006 58 291 0.9 3.5 0.00 0.00 0.00 56 1015.4
20260507094505 58 293 0.9 6.1 0.00 0.00 0.00 57 1015.5
20260507094006 58 285 1.7 7.0 0.00 0.00 0.00 57 1015.5
20260507093505 58 276 1.7 7.0 0.00 0.00 0.00 57 1015.4
20260507093006 58 268 0.9 6.1 0.00 0.00 0.00 57 1015.6
20260507092505 58 288 0.9 6.1 0.00 0.00 0.00 57 1015.6
20260507092006 58 299 0.9 4.3 0.00 0.00 0.00 58 1015.6
20260507091506 58 288 0.9 4.3 0.00 0.00 0.00 58 1015.5
20260507091006 58 257 0.0 0.9 0.00 0.00 0.00 59 1015.4
20260507090506 58 56 0.0 3.5 0.00 0.00 0.00 59 1015.4
20260507090006 59 51 0.0 3.5 0.00 0.00 0.00 58 1015.4
20260507085006 59 311 1.7 8.7 0.00 0.00 0.00 57 1015.5
20260507084506 59 319 3.5 8.7 0.00 0.00 0.00 57 1015.2
20260507084006 59 321 3.5 9.6 0.00 0.00 0.00 57 1015.0
20260507083005 59 323 2.6 10.4 0.00 0.00 0.00 57 1015.0
20260507082506 59 326 2.6 8.7 0.00 0.00 0.00 57 1014.9
20260507081506 60 321 1.7 9.6 0.00 0.00 0.00 57 1014.9
20260507080509 60 315 2.6 9.6 0.00 0.00 0.00 57 1014.8
20260507080006 60 313 2.6 9.6 0.00 0.00 0.00 57 1014.8
20260507075505 60 317 4.3 13.9 0.00 0.00 0.00 56 1014.8
20260507074506 61 327 3.5 9.6 0.00 0.00 0.00 55 1014.9
20260507074005 61 330 4.3 9.6 0.00 0.00 0.00 55 1014.9
20260507073506 61 333 5.2 11.3 0.00 0.00 0.00 54 1014.8
20260507073006 61 332 4.3 12.2 0.00 0.00 0.00 54 1014.7
20260507072006 61 331 5.2 13.0 0.00 0.00 0.00 54 1014.8
20260507071505 61 332 5.2 9.6 0.00 0.00 0.00 54 1014.8
20260507071006 61 331 5.2 9.6 0.00 0.00 0.00 55 1014.8
20260507070505 61 330 5.2 10.4 0.00 0.00 0.00 55 1014.8
20260507070010 61 327 4.3 10.4 0.00 0.00 0.00 55 1014.9
20260507065505 61 327 1.7 8.7 0.00 0.00 0.00 56 1015.0
20260507065006 61 336 1.7 6.1 0.00 0.00 0.00 56 1014.9
20260507063505 62 331 4.3 9.6 0.00 0.00 0.00 54 1015.1
20260507063005 62 325 6.1 16.5 0.00 0.00 0.00 54 1015.0
20260507062505 62 323 6.1 16.5 0.00 0.00 0.00 53 1014.8
20260507061506 62 326 4.3 11.3 0.00 0.00 0.00 54 1014.9
20260507061005 62 322 4.3 9.6 0.00 0.00 0.00 54 1015.1
20260507060505 62 326 3.5 7.8 0.00 0.00 0.00 54 1015.1
20260507060006 62 328 3.5 7.8 0.00 0.00 0.00 53 1015.2
20260507055505 63 326 3.5 7.0 0.00 0.00 0.00 53 1015.2
20260507055005 63 322 1.7 5.2 0.00 0.00 0.00 52 1015.1
20260507054506 63 326 2.6 7.8 0.00 0.00 0.00 52 1015.1
20260507054005 63 331 2.6 7.8 0.00 0.00 0.00 51 1015.1
20260507053505 64 321 2.6 7.8 0.00 0.00 0.00 51 1015.1
20260507053006 64 316 2.6 8.7 0.00 0.00 0.00 50 1015.1
20260507052505 64 319 3.5 9.6 0.00 0.00 0.00 49 1015.0
20260507052005 65 319 3.5 9.6 0.00 0.00 0.00 48 1015.0
20260507051005 66 323 2.6 9.6 0.00 0.00 0.00 47 1015.0
20260507050505 66 327 3.5 9.6 0.00 0.00 0.00 46 1014.9
20260507050006 66 325 3.5 8.7 0.00 0.00 0.00 46 1015.0
20260507045505 67 324 3.5 8.7 0.00 0.00 0.00 45 1015.0
20260507045005 67 326 4.3 8.7 0.00 0.00 0.00 44 1014.9
20260507044506 68 328 3.5 8.7 0.00 0.00 0.00 43 1014.9
20260507044005 68 328 2.6 7.8 0.00 0.00 0.00 42 1015.0
20260507043505 69 328 1.7 7.8 0.00 0.00 0.00 41 1015.0
20260507043006 69 317 1.7 5.2 0.00 0.00 0.00 40 1015.0
20260507041505 70 280 0.9 4.3 0.00 0.00 0.00 39 1014.9
20260507041005 70 300 1.7 5.2 0.00 0.00 0.00 39 1014.9
20260507040505 70 279 1.7 5.2 0.00 0.00 0.00 37 1014.7
20260507040005 71 255 1.7 5.2 0.00 0.00 0.00 36 1014.7
20260507035505 71 252 1.7 4.3 0.00 0.00 0.00 36 1014.5
20260507035005 71 250 2.6 5.2 0.00 0.00 0.00 36 1014.5
20260507033505 71 255 2.6 5.2 0.00 0.00 0.00 35 1014.4
20260507033005 71 256 3.5 7.8 0.00 0.00 0.00 35 1014.3
20260507032505 72 256 3.5 7.8 0.00 0.00 0.00 35 1014.3
20260507032005 72 252 3.5 7.0 0.00 0.00 0.00 35 1014.1
20260507031505 72 253 3.5 7.0 0.00 0.00 0.00 34 1014.1
20260507031005 72 259 3.5 7.0 0.00 0.00 0.00 34 1014.1
20260507030005 73 255 3.5 7.8 0.00 0.00 0.00 33 1014.1
20260507025505 73 259 3.5 7.8 0.00 0.00 0.00 33 1014.1
20260507025005 74 260 3.5 7.8 0.00 0.00 0.00 33 1014.0
20260507024505 74 260 3.5 7.0 0.00 0.00 0.00 33 1014.0
20260507024005 74 256 3.5 7.0 0.00 0.00 0.00 32 1013.9
20260507023505 74 255 4.3 7.8 0.00 0.00 0.00 32 1013.8
20260507023006 74 257 5.2 10.4 0.00 0.00 0.00 32 1013.8
20260507022505 74 255 7.0 13.0 0.00 0.00 0.00 31 1013.7
20260507021505 75 258 5.2 13.0 0.00 0.00 0.00 31 1013.6
20260507021005 75 253 5.2 10.4 0.00 0.00 0.00 31 1013.6
20260507020504 75 256 5.2 11.3 0.00 0.00 0.00 31 1013.6
20260507020005 74 256 5.2 11.3 0.00 0.00 0.00 31 1013.6
20260507015504 75 254 6.1 11.3 0.00 0.00 0.00 31 1013.6
20260507015005 75 255 6.1 11.3 0.00 0.00 0.00 31 1013.5
20260507014505 75 256 6.1 13.0 0.00 0.00 0.00 31 1013.5
20260507014005 75 256 6.1 13.0 0.00 0.00 0.00 30 1013.5
20260507013505 75 257 5.2 11.3 0.00 0.00 0.00 30 1013.5
20260507013005 75 260 4.3 9.6 0.00 0.00 0.00 31 1013.4
20260507012505 75 261 4.3 9.6 0.00 0.00 0.00 31 1013.5
20260507011505 75 263 5.2 9.6 0.00 0.00 0.00 31 1013.5
20260507011004 75 262 5.2 10.4 0.00 0.00 0.00 31 1013.5
20260507010504 75 258 5.2 11.3 0.00 0.00 0.00 31 1013.5
20260507005504 75 255 4.3 8.7 0.00 0.00 0.00 31 1013.5
20260507005005 75 259 3.5 8.7 0.00 0.00 0.00 32 1013.5
20260507004505 76 260 3.5 9.6 0.00 0.00 0.00 32 1013.5
20260507004005 76 262 4.3 9.6 0.00 0.00 0.00 33 1013.4
20260507003504 76 259 4.3 9.6 0.00 0.00 0.00 33 1013.4
20260507003005 76 260 4.3 9.6 0.00 0.00 0.00 33 1013.4
20260507002505 76 258 4.3 7.8 0.00 0.00 0.00 33 1013.3
20260507002005 76 258 5.2 11.3 0.00 0.00 0.00 33 1013.2
20260507001505 76 258 5.2 11.3 0.00 0.00 0.00 32 1013.2
20260507001004 77 253 3.5 8.7 0.00 0.00 0.00 32 1013.1
20260507000505 77 255 4.3 9.6 0.00 0.00 0.00 33 1013.0
20260507000005 77 257 5.2 9.6 0.00 0.00 0.00 32 1013.0
20260506235506 78 257 5.2 10.4 0.00 0.00 0.00 31 1013.0
20260506235004 78 256 4.3 10.4 0.00 0.00 0.00 32 1012.9
20260506234505 78 259 3.5 10.4 0.00 0.00 0.00 32 1012.9
20260506233505 78 258 4.3 11.3 0.00 0.00 0.00 32 1012.7
20260506233004 79 254 5.2 10.4 0.00 0.00 0.00 31 1012.7
20260506232505 79 252 4.3 10.4 0.00 0.00 0.00 30 1012.7
20260506232005 80 256 4.3 9.6 0.00 0.00 0.00 29 1012.7
20260506231505 80 258 3.5 8.7 0.00 0.00 0.00 30 1012.8
20260506231005 80 258 2.6 7.8 0.00 0.00 0.00 31 1012.8
20260506230509 80 261 3.5 7.0 0.00 0.00 0.00 30 1012.8
20260506230004 80 257 4.3 9.6 0.00 0.00 0.00 29 1012.8
20260506225505 81 255 4.3 9.6 0.00 0.00 0.00 27 1012.8
20260506225004 81 256 4.3 10.4 0.00 0.00 0.00 27 1012.8
20260506224004 82 252 4.3 11.3 0.00 0.00 0.00 27 1012.9
20260506223505 83 251 3.5 8.7 0.00 0.00 0.00 26 1012.9
20260506223005 83 249 2.6 7.8 0.00 0.00 0.00 27 1012.8
20260506222504 83 252 3.5 9.6 0.00 0.00 0.00 28 1012.9
20260506222005 83 256 4.3 9.6 0.00 0.00 0.00 27 1013.0
20260506221004 83 259 5.2 13.0 0.00 0.00 0.00 29 1013.0
20260506220504 83 256 5.2 13.0 0.00 0.00 0.00 28 1013.0
20260506215505 85 254 3.5 8.7 0.00 0.00 0.00 26 1012.9
20260506214004 86 289 3.5 9.6 0.00 0.00 0.00 25 1012.9
20260506213504 86 299 3.5 10.4 0.00 0.00 0.00 25 1012.8
20260506212504 88 311 2.6 7.8 0.00 0.00 0.00 26 1012.6
20260506212004 87 314 2.6 7.0 0.00 0.00 0.00 27 1012.5
20260506211504 88 315 2.6 7.0 0.00 0.00 0.00 24 1012.6
20260506211004 88 307 2.6 6.1 0.00 0.00 0.00 26 1012.7
20260506205504 88 305 2.6 11.3 0.00 0.00 0.00 25 1012.7
20260506205004 88 303 1.7 7.8 0.00 0.00 0.00 25 1012.7
20260506204505 88 318 2.6 7.8 0.00 0.00 0.00 25 1012.8
20260506204005 88 312 2.6 9.6 0.00 0.00 0.00 26 1012.7
20260506203504 87 316 2.6 9.6 0.00 0.00 0.00 27 1012.7
20260506203004 87 318 3.5 9.6 0.00 0.00 0.00 27 1012.9
20260506202505 87 306 3.5 9.6 0.00 0.00 0.00 27 1013.0
20260506202004 88 298 2.6 9.6 0.00 0.00 0.00 26 1012.9
20260506201004 87 308 2.6 10.4 0.00 0.00 0.00 28 1013.1
20260506200503 87 307 2.6 7.8 0.00 0.00 0.00 28 1012.9
20260506200004 87 295 2.6 6.1 0.00 0.00 0.00 28 1013.0
20260506195504 87 272 1.7 4.3 0.00 0.00 0.00 28 1013.1
20260506195004 88 265 1.7 3.5 0.00 0.00 0.00 27 1013.2
20260506194505 88 327 0.9 3.5 0.00 0.00 0.00 27 1013.2
20260506194004 87 65 0.9 3.5 0.00 0.00 0.00 29 1013.2
20260506193504 88 217 0.9 5.2 0.00 0.00 0.00 28 1013.2
20260506193004 89 213 0.9 5.2 0.00 0.00 0.00 27 1013.3
20260506192504 89 166 0.9 3.5 0.00 0.00 0.00 28 1013.3
20260506192010 86 105 0.9 3.5 0.00 0.00 0.00 30 1013.3
20260506191504 87 277 0.9 2.6 0.00 0.00 0.00 29 1013.3
20260506190005 85 82 0.9 2.6 0.00 0.00 0.00 30 1013.2
20260506185004 86 228 0.9 5.2 0.00 0.00 0.00 29 1013.4
20260506184505 86 250 0.9 5.2 0.00 0.00 0.00 29 1013.4
20260506184004 84 324 1.7 4.3 0.00 0.00 0.00 30 1013.5
20260506183005 84 259 0.9 3.5 0.00 0.00 0.00 30 1013.6
20260506182004 83 325 1.7 5.2 0.00 0.00 0.00 31 1013.6
20260506181004 84 262 0.9 3.5 0.00 0.00 0.00 33 1013.7
20260506180504 82 260 1.7 3.5 0.00 0.00 0.00 34 1013.7
20260506180005 82 248 1.7 3.5 0.00 0.00 0.00 33 1013.7
20260506175504 84 238 0.9 3.5 0.00 0.00 0.00 33 1013.7
20260506175004 84 225 0.0 1.7 0.00 0.00 0.00 35 1013.7
20260506174504 82 248 0.9 2.6 0.00 0.00 0.00 37 1013.7
20260506174004 80 313 0.9 7.0 0.00 0.00 0.00 36 1013.7
20260506173503 80 344 1.7 7.0 0.00 0.00 0.00 36 1013.8
20260506172503 81 50 0.9 3.5 0.00 0.00 0.00 37 1013.9
20260506172004 80 45 0.9 3.5 0.00 0.00 0.00 36 1013.9
20260506171504 80 62 0.9 3.5 0.00 0.00 0.00 37 1013.8
20260506171004 81 65 0.9 3.5 0.00 0.00 0.00 36 1013.9
20260506170503 81 45 0.9 2.6 0.00 0.00 0.00 36 1014.0
20260506170004 80 59 0.9 2.6 0.00 0.00 0.00 37 1013.8
20260506165504 80 37 0.9 2.6 0.00 0.00 0.00 37 1013.8
20260506165004 79 23 0.9 2.6 0.00 0.00 0.00 38 1013.8
20260506164504 80 183 1.7 6.1 0.00 0.00 0.00 37 1014.0
20260506163503 79 206 1.7 6.1 0.00 0.00 0.00 38 1013.9
20260506163004 79 246 0.9 5.2 0.00 0.00 0.00 39 1014.0
20260506162503 78 244 0.9 4.3 0.00 0.00 0.00 40 1014.1
20260506162004 78 229 0.9 4.3 0.00 0.00 0.00 39 1014.1
20260506161503 78 285 0.9 3.5 0.00 0.00 0.00 41 1014.2
20260506161004 79 297 0.9 3.5 0.00 0.00 0.00 39 1014.3
20260506160503 79 261 0.0 0.9 0.00 0.00 0.00 42 1014.4
20260506160005 78 258 0.0 0.9 0.00 0.00 0.00 41 1014.4
20260506155504 77 253 0.0 1.7 0.00 0.00 0.00 43 1014.4
20260506155003 75 264 0.9 4.3 0.00 0.00 0.00 43 1014.4
20260506154504 74 269 0.9 4.3 0.00 0.00 0.00 44 1014.3
20260506154004 74 244 0.9 4.3 0.00 0.00 0.00 45 1014.4
20260506153503 74 243 1.7 4.3 0.00 0.00 0.00 43 1014.3
20260506153004 74 289 1.7 7.8 0.00 0.00 0.00 43 1014.4
20260506152506 73 312 2.6 9.6 0.00 0.00 0.00 43 1014.3
20260506152006 73 321 2.6 9.6 0.00 0.00 0.00 43 1014.4
20260506151507 73 324 1.7 4.3 0.00 0.00 0.00 44 1014.4
20260506151006 72 328 0.9 4.3 0.00 0.00 0.00 45 1014.5
20260506150006 72 155 0.0 0.9 0.00 0.00 0.00 47 1014.7
20260506145507 71 166 0.0 1.7 0.00 0.00 0.00 49 1014.6
20260506145006 69 195 0.0 1.7 0.00 0.00 0.00 51 1014.5
20260506144006 68 207 0.0 1.7 0.00 0.00 0.00 51 1014.6
20260506143008 66 190 0.0 0.9 0.00 0.00 0.00 53 1014.5